Location: Observatoire
(46.1952°N, 5.3391°E)
Time: 20:36:57
(UTC+01:00)

Altair - Pass Details

Date: 20 February 2026
Orbit: 1502 x 1682 km, 47.2° (Epoch: 10 March)

Event Time Altitude Azimuth Distance (km) Brightness Sun altitude
Rises 07:14:03 0° 267° (W) 4,645 - -4.1°
Exits shadow 07:15:02 - 268° (W) 4,324 9.2 -4.0°
Reaches altitude 10° 07:17:03 10° 269° (W) 3,675 8.9 -3.6°
Maximum altitude 07:26:22 84° 358° (N) 1,559 7.6 -2.1°
Drops below altitude 10° 07:36:02 10° 88° (E) 3,802 11.2 -0.4°
Sets 07:39:11 0° 89° (E) 4,812 11.9 0.1°
